Airfield :
LOGIN :

Register | Disclaimer

   EN    FR    IT 

 










Legend :    VFR   Marginal VFR   IFR   Intensive IFR   Very Intensive IFR
Visi :
Ceiling :
>= 8 km
>= 3000ft
5 to 8 km
1000 to 3000 ft
1500m to 5 km
500 to 1000 ft
800 to 1500m
200 to 500 ft
< 800m
< 200 ft
Symbols :   Thunderstorms  Fog  Heavy snow  Heavy precipitations  Wind > 20 kt
SIGMETs :     Misc.  Thunderstorms  Icing  Turbulence  Mountain Waves  Volcanic Ashes







- Airport Elevation : 325 ft
- IATA code : POX
- Download approach charts


LFPT - Pontoise

CURRENT METAR :
  • 231430Z AUTO 31006KT 260V360 CAVOK 22/13 Q1022

EXPIRED METARs :
  • 231400Z AUTO 33006KT 280V010 CAVOK 22/15 Q1022
  • 231330Z AUTO 32007KT 280V360 CAVOK 21/14 Q1022
  • 231300Z AUTO 31008KT 270V350 CAVOK 21/14 Q1022
  • 231230Z AUTO 32009KT 290V360 CAVOK 21/13 Q1022
  • 231200Z AUTO 33009KT 300V010 9999 FEW035 21/14 Q1022

TAF N/A
ATIS : +33 1 30 30 52 08
No reported NOTAMs for that airfield.



MET'MAP, your aeronautical weather chart ! - Copyright ORBIFLY December 2007 - Disclaimer

ORBIFLY MET'MAP TEAM :

Programming & Development : Alexandra Zaïnal
Concept & Development : Baudouin d'Aumeries
Co-Development & Prog : Marc-Olivier Méhu
Technical & hardware support : Manuel Goepfert

Contact : metmap@orbifly.com




SOURCES & CREDITS :

   NOAA